Regional Weather Roundup
Issued by NWS

Home | Current Version | Previous Version | Text Only | Print | Product List | Glossary On
Versions: 1 2 3 4 5 6 7 8 9 10 11 12 13 14 15 16 17 18 19 20 21 22 23 24 25 26 27 28 29 30 31 32 33 34 35 36 37 38 39 40 41 42 43 44 45 46 47 48 49 50
000
ASCA44 KEWX 010220
RWRMX

LATIN AMERICA AND CARIBBEAN REGIONAL WEATHER ROUNDUP
NATIONAL WEATHER SERVICE AUSTIN/SAN ANTONIO TX
800 PM CST SAT FEB 28 2015

NOTE: "FAIR" INDICATED FEW OR NO CLOUDS BELOW 12,000 FEET WITH NO
SIGNIFICANT WEATHER AND/OR OBSTRUCTIONS TO VISIBILITY.

BAJA CALIFORNIA

CITY           SKY/WX    TMP DP  RH WIND       PRES   REMARKS
LORETO         PTCLDY    72  55  56 CALM      29.90R
LA PAZ         MOCLDY    72  52  49 W9        29.96
MEXICALI       MOCLDY    66  36  32 W10       29.81
S.J. DEL CABO  MOCLDY    72  55  56 N6        29.93R
TIJUANA        MOCLDY    59  45  58 S7        29.91S

NORTHWESTERN MEXICO

CITY           SKY/WX    TMP DP  RH WIND       PRES   REMARKS
CULIACAN       MOCLDY    75  64  69 CALM      29.93
DURANGO        PTCLDY    64  23  20 SW8       30.15R
GUAYMAS        CLEAR     72  55  56 CALM      29.88
HERMOSILLO     CLEAR     73  57  56 S12       29.94
CD. JUAREZ     CLEAR     68  34  28 W15       29.87
LOS MOCHIS     MOCLDY    72  59  64 S9        29.93R
OBREGON        PTCLDY    66  59  77 CALM      29.91

NORTHEASTERN MEXICO

CITY           SKY/WX    TMP DP  RH WIND       PRES   REMARKS
CHIHUAHUA      PTCLDY    70  23  17 S12       29.95
MATAMOROS      DRZL/FOG  48  48 100 CALM      30.17  VSB 1
MONTERREY      CLOUDY    48  46  93 SE8       30.13R WCI  45
NUEVO LAREDO   DRIZZLE   43  39  87 CALM      30.20  FOG
REYNOSA        DRZL/FOG  46  45  93 NW6       30.15  VSB 1   WCI  43
SALTILLO       PTCLDY    57  45  62 N7        30.13R
TORREON        PTCLDY    73  37  27 CALM      29.99S
CD. VICTORIA   MOCLDY    63  48  59 N9        30.10

WESTERN MEXICO

CITY           SKY/WX    TMP DP  RH WIND       PRES   REMARKS
AGUASCALIENTES CLEAR     64  16  15 SW7       30.18
DEL BAJIO      MOCLDY    70  32  24 W6        30.22R
GUADALAJARA    CLEAR     72  27  18 SW3       30.12
MANZANILLO     PTCLDY    72  61  68 NW6       29.89R
MAZATLAN       PTCLDY    64  55  72 SW7       29.94R
P. VALLARTA    CLEAR     73  64  73 SW5       29.95
ZACATECAS      CLEAR     61  10  13 CALM      30.21R

CENTRAL MEXICO

CITY           SKY/WX    TMP DP  RH WIND       PRES   REMARKS
MEXICO CITY    CLEAR     68  37  32 S9        30.27R
MORELIA        CLEAR     66  36  32 S5        30.18
POZA RICA      MOCLDY    64  63  94 E9        30.09
PUEBLA         PTCLDY    63  34  34 S7        30.28R
QUERETARO      PTCLDY    70  39  32 E12       30.22
S. LUIS POTOSI MOCLDY    61  37  41 N5        30.18R
TAMPICO        MOCLDY    64  61  88 NE8       30.09R
TOLUCA         CLEAR     54  32  43 SE7       30.36R

SOUTHERN MEXICO

CITY           SKY/WX    TMP DP  RH WIND       PRES   REMARKS
ACAPULCO       CLEAR     77  72  83 W6        29.89R
OAXACA         CLEAR     72  48  43 E16       30.16R
VERACRUZ       MOCLDY    66  63  88 N12       30.08R
ZIHUATANEJO    CLEAR     79  70  73 CALM      29.91F

YUCATAN PENINSULA

CITY           SKY/WX    TMP DP  RH WIND       PRES   REMARKS
CAMPECHE       MOCLDY    77  75  94 N12       30.02R
CANCUN         PTCLDY    79  73  83 E6        30.14R
CHETUMAL       CLEAR     81  70  69 E12       30.07R
CD. DEL CARMEN   N/A    N/A N/A N/A MISG        N/A
COZUMEL        PTCLDY    72  72 100 E5        30.12R
MERIDA         PTCLDY    82  68  61 SE18      30.06R
MINATITLAN       N/A    N/A N/A N/A MISG        N/A
TAPACHULA      MOCLDY    82  75  78 CALM      29.93R
TUX. GUTIERREZ PTCLDY    72  61  68 NW14      30.02R
VILLAHERMOSA   PTCLDY    72  70  94 CALM      30.05R

CENTRAL AMERICA

CITY           SKY/WX    TMP DP  RH WIND       PRES   REMARKS
BELIZE CITY    PTCLDY    79  73  83 E5        30.07R
MANAGUA        PTCLDY    84  64  51 E12       29.92R

CARIBBEAN

CITY           SKY/WX    TMP DP  RH WIND       PRES   REMARKS
ARUBA          PTCLDY    81  72  74 E18       29.97R
CURACAO        PTCLDY    81  72  74 E15       30.00S
KINGSTON       PTCLDY    82  68  61 SE18      30.06R
NASSAU         PTCLDY    75  72  88 E10       30.28R
SAN JUAN       PTCLDY    75  68  78 E7        30.14R
SANTO DOMINGO  PTCLDY    73  70  88 NE7       30.09S
ST. CROIX      PTCLDY    75  66  73 NE10      30.13S
ST. MAARTEN    PTCLDY    77  68  73 E17       30.12S

$$




USA.gov is the U.S. government's official web portal to all federal, state and local government web resources and services.